#timestamp,LO_Frequency,Hit,StdDev 
1617714975.6,286046984.8,P
1617714995.5,286046985.1,P
1617715015.3,286046985.1,P
1617715035.1,286046980.6,Y
1617715055.9,286046995.3,P
1617715075.7,286046997.3,N
1617715095.6,286046997.1,N
1617715115.4,286046997.2,N
1617715135.2,286046997.7,N
1617715155.1,286046996.6,N
1617715156.0,286046996.6,N
1617715175.8,286046997.3,N
1617715195.6,286046995.3,N
1617715215.5,286046996.3,N
1617715235.3,286046996.3,N
1617715255.2,286046996.0,N
1617715275.9,286046993.4,N
1617715295.7,286046992.0,N
1617715315.6,286046993.0,N
1617715335.4,286046992.7,N
1617715355.2,286046993.1,N
1617715375.1,286046991.7,N
1617715376.0,286046991.7,N
1617715395.8,286046992.2,N
1617715415.7,286046992.9,N
1617715435.5,286046992.6,N
1617715455.3,286046992.9,N
1617715475.2,286046991.7,N
1617715495.0,286046992.2,N
1617715495.9,286046992.2,N
1617715515.7,286046990.4,Y
1617715535.6,286046998.0,P
1617715555.4,286046995.1,N
1617715575.3,286046997.7,N
1617715595.1,286046997.4,N
1617715596.0,286046997.4,N
1617715615.8,286046997.8,N
1617715635.7,286046995.8,N
1617715655.5,286046994.6,Y
1617715675.4,286046995.4,P
1617715695.2,286046997.8,P
1617715715.0,286046993.3,P
1617715715.9,286046993.3,Y
1617715735.8,286046998.6,P
1617715755.6,286046999.0,N
1617715775.4,286046999.1,N
1617715795.3,286046999.5,N
1617715815.1,286046997.9,N
1617715835.9,286046997.2,N
1617715855.7,286046997.4,N
1617715875.5,286046997.1,N
1617715895.4,286046997.8,N
1617715915.2,286046996.2,Y
1617715935.1,286046996.7,P
1617715936.0,286046996.7,P
1617715955.8,286046999.2,N
1617715975.6,286046997.8,N
1617715995.5,286046996.9,Y
1617716015.3,286047000.9,P
1617716035.1,286046998.3,N
1617716055.9,286046997.1,N
1617716075.7,286046997.1,N
1617716095.6,286046995.7,Y
1617716115.4,286046997.8,P
1617716135.2,286046999.5,N
1617716155.1,286046997.1,P
1617716156.0,286046997.1,Y
1617716175.8,286046997.3,P
1617716195.6,286046997.4,P
1617716215.5,286046995.8,P
1617716235.3,286046996.0,Y
1617716255.2,286046996.7,P
1617716275.9,286046997.9,P
1617716295.7,286046997.7,P
1617716315.6,286046995.3,Y
1617716335.4,286046998.9,P
1617716355.3,286047000.8,N
1617716375.1,286046998.7,N
1617716376.0,286046998.7,N
1617716395.8,286046997.1,N
1617716415.7,286047011.9,Y
1617716435.5,286046996.5,P
1617716455.3,286046999.0,N
1617716475.2,286046996.8,N
1617716495.0,286046997.1,N
1617716495.9,286046997.1,N
1617716515.8,286046997.2,Y
1617716535.6,286046999.3,P
1617716555.4,286046997.1,P
1617716575.3,286046995.3,P
1617716595.1,286046995.9,N
1617716615.9,286046995.7,Y
1617716635.7,286046999.0,P
1617716655.5,286046998.9,N
1617716675.4,286046996.9,P
1617716695.2,286046998.8,N
1617716715.0,286046999.0,N
1617716715.9,286046999.0,N
1617716735.8,286046998.4,N
1617716755.6,286046996.9,Y
1617716775.5,286046999.2,P
1617716795.3,286046997.4,P
1617716815.1,286046997.7,P
1617716835.9,286046995.6,Y
1617716855.7,286046995.5,P
1617716875.6,286046993.9,P
1617716895.4,286046995.9,N
1617716915.2,286046996.2,N
1617716935.1,286046996.1,N
1617716936.0,286046996.1,Y
1617716955.8,286046998.7,P
1617716975.6,286046997.8,N
1617716995.5,286046995.0,P
1617717015.3,286046996.3,N
1617717035.2,286046993.3,Y
1617717055.0,286046997.3,P
1617717055.9,286046997.3,P
1617717075.7,286046995.1,P
1617717095.6,286046996.2,Y
1617717115.4,286046998.5,P
1617717135.3,286046998.8,N
1617717155.1,286046998.3,N
1617717156.0,286046998.3,N
1617717175.8,286046998.8,N
1617717195.7,286046998.8,N
1617717215.5,286047000.4,N
1617717235.4,286046996.7,Y
1617717255.2,286046999.3,P
1617717275.0,286046999.1,N
1617717275.9,286046999.1,N
1617717295.8,286046997.3,Y
1617717315.6,286046997.1,P
1617717335.4,286046998.0,N
1617717355.3,286046996.8,P
1617717375.1,286046995.3,Y
1617717395.9,286046999.0,P
1617717415.7,286046999.6,N
1617717435.5,286046997.2,P
1617717455.4,286046999.1,N
1617717475.2,286047001.0,N
1617717495.1,286046998.6,N
1617717496.0,286046998.6,N
1617717515.8,286046998.4,N
1617717535.6,286046998.7,N
1617717555.5,286046999.0,N
1617717575.3,286046997.3,N
1617717595.1,286046995.7,Y
